Regional Weather Roundup
Issued by NWS

Home | Current Version | Previous Version | Text Only | Print | Product List | Glossary On
Versions: 1 2 3 4 5 6 7 8 9 10 11 12 13 14 15 16 17 18 19 20 21 22 23 24 25 26 27
000
ASUS45 KREV 250610
RWRNV
NEVADA REGIONAL WEATHER ROUNDUP
NATIONAL WEATHER SERVICE RENO NV
1000 PM PST FRI NOV 24 2017

NOTE: "FAIR" INDICATES FEW OR NO CLOUDS BELOW 12,000 FEET WITH NO
SIGNIFICANT WEATHER AND/OR OBSTRUCTIONS TO VISIBILITY.

NVZ001-003-004-250700-
WESTERN NEVADA

CITY           SKY/WX    TMP DP  RH WIND       PRES   REMARKS
RENO           CLOUDY    52  32  46 CALM      30.15R
6HR MIN TEMP:  52; 6HR MAX TEMP:  65;

CARSON CITY    FAIR      50  32  50 CALM      30.16S
MINDEN         FAIR      46  36  66 E5        30.15F
SLIDE MTN        N/A     39   7  26 W24         N/A
PYRAMID LAKE     N/A     54 N/A N/A N1          N/A
FALLON         CLOUDY    48  30  49 CALM      30.12F
6HR MIN TEMP:  47; 6HR MAX TEMP:  64;

LOVELOCK       CLOUDY    44  33  65 E3        30.13S
6HR MIN TEMP:  43; 6HR MAX TEMP:  62;

HAWTHORNE      CLEAR     52  27  37 S5        30.14S
$$

NVZ002-CAZ072-073-250700-
NORTHERN AND CENTRAL SIERRA

CITY           SKY/WX    TMP DP  RH WIND       PRES   REMARKS
S. LAKE TAHOE  CLOUDY    42  33  70 CALM      30.21R
6HR MIN TEMP:  42; 6HR MAX TEMP:  54;

TRUCKEE        CLOUDY    37  32  81 N5        30.22R
SQUAW VLY 8000   N/A     43   1  17 S6          N/A
SUSANVILLE     CLEAR     45  37  76 W6        30.15R
BLUE CANYON    CLOUDY    53  16  23 CALM      30.21R
MAMMOTH LAKES  FAIR      37  14  39 NE3       30.27R
6HR MIN TEMP:  36; 6HR MAX TEMP:  58;

$$

NVZ030-031-036-250700-
NORTHERN NEVADA

CITY           SKY/WX    TMP DP  RH WIND       PRES   REMARKS
ELKO           CLOUDY    42  36  79 NW5       30.19R
6HR MIN TEMP:  40; 6HR MAX TEMP:  53;

WINNEMUCCA     CLOUDY    43  34  70 E7        30.14S
6HR MIN TEMP:  43; 6HR MAX TEMP:  55;

WENDOVER       CLOUDY    44  34  67 CALM      30.19R
$$

NVZ035-037-250700-
CENTRAL NEVADA

CITY           SKY/WX    TMP DP  RH WIND       PRES   REMARKS
ELY            CLOUDY    34   9  35 S10       30.23R
6HR MIN TEMP:  34; 6HR MAX TEMP:  57;

EUREKA           N/A     39  22  50 SW6       30.21S
6HR MIN TEMP:  37; 6HR MAX TEMP:  57;

$$

NVZ013-014-250700-
SOUTH CENTRAL NEVADA

CITY           SKY/WX    TMP DP  RH WIND       PRES   REMARKS
TONOPAH        MOCLDY    46   5  18 N13       30.20R
6HR MIN TEMP:  45; 6HR MAX TEMP:  66;

$$

NVZ017-020-022-250700-
SOUTHERN NEVADA

CITY           SKY/WX    TMP DP  RH WIND       PRES   REMARKS
LAS VEGAS      PTCLDY    62  36  37 CALM      30.01S
6HR MIN TEMP:  62; 6HR MAX TEMP:  75;

N. LAS VEGAS   CLEAR     58  38  47 NW3       30.01R
6HR MIN TEMP:  58; 6HR MAX TEMP:  74;

NELLIS AFB     CLEAR     55  32  41 N3        30.00S
6HR MIN TEMP:  55; 6HR MAX TEMP:  74;

HENDERSON      CLEAR     57  34  41 S7        30.04R
6HR MIN TEMP:  56; 6HR MAX TEMP:  73;

MERCURY        CLEAR     50  31  48 SE5       30.07R
6HR MIN TEMP:  50; 6HR MAX TEMP:  71;

$$




USA.gov is the U.S. government's official web portal to all federal, state and local government web resources and services.